When you browse on this site, cookies collect data to enhance your experience and personalize the content and advertising you see.
Visit our Privacy Policy to learn more. By continuing to use the site, you agree to this use of cookies and data.
  • Em Portugal
  • Lista de países
  • Para 7 dias
  • Temperatura da água
  • Mapa do tempo
  • Widgets de tempo
  • user-avatar
    Iniciar Sessão

    Previsão horária em Albufeira

    Hoje, 25 Janeiro, Sábado

    Tempo Temperatura Precipitação Vento Pressão Humidade
    00:00 +9°C° 0.4 mm 2 m/s 755 mmHg 92%
    01:00 +10°C° 0.4 mm 2 m/s 755 mmHg 92%
    02:00 +10°C° 0.4 mm 2 m/s 754 mmHg 92%
    03:00 +10°C° 0.3 mm 2 m/s 754 mmHg 91%
    04:00 +10°C° 0.3 mm 2 m/s 754 mmHg 91%
    05:00 +10°C° 0.3 mm 2 m/s 754 mmHg 91%
    06:00 +10°C° 0.3 mm 2 m/s 755 mmHg 89%
    07:00 +12°C° 0.3 mm 2 m/s 755 mmHg 87%
    08:00 +13°C° 0.3 mm 2 m/s 755 mmHg 85%
    09:00 +14°C° 0.1 mm 2 m/s 756 mmHg 79%
    10:00 +16°C° 0.1 mm 2 m/s 756 mmHg 73%
    11:00 +17°C° 0.1 mm 2 m/s 756 mmHg 66%
    12:00 +17°C° 0.3 mm 2 m/s 756 mmHg 67%
    13:00 +17°C° 0.3 mm 3 m/s 756 mmHg 67%
    14:00 +17°C° 0.3 mm 3 m/s 755 mmHg 68%
    15:00 +14°C° 0.1 mm 3 m/s 756 mmHg 74%
    16:00 +13°C° 0.1 mm 4 m/s 756 mmHg 81%
    17:00 +11°C° 0.1 mm 4 m/s 757 mmHg 87%
    18:00 +10°C° 0 mm 4 m/s 758 mmHg 89%
    19:00 +10°C° 0 mm 4 m/s 758 mmHg 91%
    20:00 +8°C° 0 mm 4 m/s 759 mmHg 92%
    21:00 +8°C° 0 mm 4 m/s 760 mmHg 93%
    22:00 +8°C° 0 mm 4 m/s 760 mmHg 93%
    23:00 +7°C° 0 mm 4 m/s 760 mmHg 93%

    Amanhã, 26 Janeiro, Domingo

    Tempo Temperatura Precipitação Vento Pressão Humidade
    00:00 +8°C° 0 mm 3 m/s 761 mmHg 92%
    01:00 +8°C° 0 mm 3 m/s 761 mmHg 92%
    02:00 +8°C° 0 mm 2 m/s 761 mmHg 92%
    03:00 +8°C° 0 mm 2 m/s 761 mmHg 92%
    04:00 +8°C° 0 mm 2 m/s 761 mmHg 93%
    05:00 +8°C° 0 mm 1 m/s 761 mmHg 93%
    06:00 +9°C° 0 mm 1 m/s 762 mmHg 91%
    07:00 +10°C° 0 mm 1 m/s 762 mmHg 89%
    08:00 +10°C° 0 mm 0 m/s 763 mmHg 88%
    09:00 +13°C° 0 mm 1 m/s 763 mmHg 82%
    10:00 +14°C° 0 mm 1 m/s 763 mmHg 76%
    11:00 +16°C° 0 mm 2 m/s 763 mmHg 71%
    12:00 +16°C° 0 mm 2 m/s 763 mmHg 70%
    13:00 +16°C° 0 mm 3 m/s 763 mmHg 70%
    14:00 +16°C° 0 mm 3 m/s 763 mmHg 69%
    15:00 +14°C° 0 mm 3 m/s 763 mmHg 76%
    16:00 +12°C° 0 mm 3 m/s 763 mmHg 83%
    17:00 +11°C° 0 mm 3 m/s 763 mmHg 90%
    18:00 +12°C° 0 mm 2 m/s 763 mmHg 91%
    19:00 +10°C° 0 mm 2 m/s 763 mmHg 92%
    20:00 +10°C° 0 mm 2 m/s 764 mmHg 92%
    21:00 +10°C° 0 mm 2 m/s 764 mmHg 93%
    22:00 +10°C° 0 mm 2 m/s 764 mmHg 93%
    23:00 +10°C° 0 mm 2 m/s 764 mmHg 93%

    Depois de amanhã, 27 Janeiro, Segunda-feira

    Tempo Temperatura Precipitação Vento Pressão Humidade
    00:00 +10°C° 0 mm 2 m/s 763 mmHg 93%
    01:00 +10°C° 0 mm 3 m/s 763 mmHg 93%
    02:00 +10°C° 0 mm 3 m/s 763 mmHg 93%
    03:00 +11°C° 0 mm 3 m/s 763 mmHg 93%
    04:00 +11°C° 0 mm 3 m/s 762 mmHg 94%
    05:00 +11°C° 0 mm 3 m/s 762 mmHg 94%
    06:00 +11°C° 0 mm 3 m/s 762 mmHg 93%
    07:00 +12°C° 0 mm 3 m/s 762 mmHg 91%
    08:00 +12°C° 0 mm 3 m/s 763 mmHg 90%
    09:00 +14°C° 0 mm 4 m/s 763 mmHg 84%
    10:00 +15°C° 0 mm 4 m/s 763 mmHg 78%
    11:00 +16°C° 0 mm 5 m/s 763 mmHg 73%
    12:00 +16°C° 0 mm 5 m/s 763 mmHg 73%
    13:00 +16°C° 0 mm 5 m/s 762 mmHg 73%
    14:00 +16°C° 0 mm 5 m/s 762 mmHg 74%
    15:00 +15°C° 0 mm 4 m/s 762 mmHg 80%
    16:00 +14°C° 0 mm 4 m/s 762 mmHg 87%
    17:00 +13°C° 0 mm 3 m/s 762 mmHg 93%
    18:00 +12°C° 0 mm 3 m/s 762 mmHg 94%
    19:00 +12°C° 0 mm 3 m/s 762 mmHg 96%
    20:00 +12°C° 0 mm 3 m/s 763 mmHg 97%
    21:00 +12°C° 0 mm 3 m/s 763 mmHg 97%
    22:00 +12°C° 0 mm 3 m/s 763 mmHg 97%
    23:00 +12°C° 0 mm 3 m/s 763 mmHg 97%

    28 Janeiro, Terça-feira

    Tempo Temperatura Precipitação Vento Pressão Humidade
    00:00 +12°C° 0 mm 3 m/s 762 mmHg 97%
    01:00 +12°C° 0 mm 3 m/s 762 mmHg 98%
    02:00 +12°C° 0 mm 3 m/s 762 mmHg 98%
    03:00 +12°C° 0 mm 3 m/s 762 mmHg 98%
    04:00 +12°C° 0 mm 3 m/s 762 mmHg 98%
    05:00 +12°C° 0 mm 3 m/s 762 mmHg 98%
    06:00 +12°C° 0 mm 3 m/s 762 mmHg 97%
    07:00 +13°C° 0 mm 3 m/s 762 mmHg 96%
    08:00 +13°C° 0 mm 3 m/s 762 mmHg 95%
    09:00 +14°C° 0 mm 3 m/s 763 mmHg 89%
    10:00 +17°C° 0 mm 4 m/s 763 mmHg 83%
    11:00 +18°C° 0 mm 4 m/s 763 mmHg 77%
    12:00 +18°C° 0 mm 4 m/s 762 mmHg 76%
    13:00 +18°C° 0 mm 4 m/s 762 mmHg 75%
    14:00 +18°C° 0 mm 4 m/s 761 mmHg 74%
    15:00 +16°C° 0 mm 3 m/s 761 mmHg 80%
    16:00 +14°C° 0 mm 3 m/s 761 mmHg 87%
    17:00 +14°C° 0 mm 2 m/s 761 mmHg 93%
    18:00 +14°C° 0 mm 2 m/s 761 mmHg 94%
    19:00 +13°C° 0 mm 2 m/s 762 mmHg 95%
    20:00 +13°C° 0 mm 2 m/s 762 mmHg 95%
    21:00 +13°C° 0 mm 2 m/s 762 mmHg 95%
    22:00 +13°C° 0 mm 2 m/s 762 mmHg 95%
    23:00 +13°C° 0 mm 2 m/s 762 mmHg 95%

    29 Janeiro, Quarta-feira

    Tempo Temperatura Precipitação Vento Pressão Humidade
    00:00 +13°C° 0 mm 2 m/s 761 mmHg 96%
    01:00 +13°C° 0 mm 2 m/s 761 mmHg 96%
    02:00 +13°C° 0 mm 2 m/s 761 mmHg 96%
    03:00 +13°C° 0 mm 2 m/s 761 mmHg 96%
    04:00 +13°C° 0 mm 2 m/s 760 mmHg 95%
    05:00 +12°C° 0 mm 2 m/s 760 mmHg 95%
    06:00 +13°C° 0 mm 2 m/s 760 mmHg 94%
    07:00 +12°C° 0 mm 3 m/s 761 mmHg 92%
    08:00 +13°C° 0 mm 3 m/s 761 mmHg 91%
    09:00 +14°C° 0 mm 3 m/s 761 mmHg 84%
    10:00 +15°C° 0 mm 4 m/s 761 mmHg 78%
    11:00 +17°C° 0 mm 4 m/s 761 mmHg 71%
    12:00 +17°C° 0 mm 4 m/s 761 mmHg 71%
    13:00 +17°C° 0 mm 4 m/s 760 mmHg 70%
    14:00 +17°C° 0 mm 4 m/s 760 mmHg 70%
    15:00 +16°C° 0 mm 3 m/s 760 mmHg 77%
    16:00 +14°C° 0 mm 3 m/s 760 mmHg 84%
    17:00 +13°C° 0 mm 2 m/s 760 mmHg 92%
    18:00 +13°C° 0 mm 2 m/s 760 mmHg 92%
    19:00 +14°C° 0 mm 2 m/s 761 mmHg 92%
    20:00 +14°C° 0 mm 2 m/s 761 mmHg 92%
    21:00 +12°C° 0 mm 3 m/s 761 mmHg 94%
    22:00 +12°C° 0 mm 3 m/s 761 mmHg 95%
    23:00 +12°C° 0 mm 3 m/s 761 mmHg 96%

    30 Janeiro, Quinta-feira

    Tempo Temperatura Precipitação Vento Pressão Humidade
    00:00 +12°C° 0 mm 3 m/s 761 mmHg 96%
    01:00 +12°C° 0 mm 3 m/s 761 mmHg 97%
    02:00 +13°C° 0 mm 2 m/s 760 mmHg 97%
    03:00 +13°C° 0 mm 2 m/s 760 mmHg 97%
    04:00 +13°C° 0 mm 2 m/s 760 mmHg 97%
    05:00 +13°C° 0 mm 2 m/s 760 mmHg 97%
    06:00 +14°C° 0 mm 2 m/s 761 mmHg 96%
    07:00 +14°C° 0 mm 2 m/s 761 mmHg 94%
    08:00 +15°C° 0 mm 2 m/s 762 mmHg 93%
    09:00 +16°C° 0 mm 3 m/s 762 mmHg 89%
    10:00 +17°C° 0 mm 3 m/s 762 mmHg 84%
    11:00 +18°C° 0 mm 4 m/s 762 mmHg 80%
    12:00 +18°C° 0 mm 4 m/s 762 mmHg 80%
    13:00 +18°C° 0 mm 4 m/s 761 mmHg 80%
    14:00 +18°C° 0 mm 4 m/s 761 mmHg 81%
    15:00 +17°C° 0 mm 3 m/s 761 mmHg 86%
    16:00 +17°C° 0 mm 3 m/s 761 mmHg 90%
    17:00 +16°C° 0 mm 3 m/s 761 mmHg 95%
    18:00 +15°C° 0 mm 2 m/s 762 mmHg 96%
    19:00 +15°C° 0 mm 2 m/s 762 mmHg 97%
    20:00 +15°C° 0 mm 2 m/s 763 mmHg 98%
    21:00 +15°C° 0 mm 2 m/s 763 mmHg 98%
    22:00 +15°C° 0 mm 2 m/s 763 mmHg 98%
    23:00 +15°C° 0 mm 1 m/s 763 mmHg 98%
    Mostrar mais